Starlink 31424

operational
NORAD ID: 59247 Int'l Des: 2024-049 Owner: SPXS Country: US Constellation: starlink
LEOCIRCULAR

Über Starlink 31424

Beschreibung wird geladen...

Live-Position

3D-Globus wird geladen...

Nächste Überflüge

Höhenverlauf

Altitude vs Time

uPlot chart will show altitude changes over time

Zweizeiliger Elementsatz

1 59247U 24049S 25302.90009399 -.00003144 00000-0 -10473-3 0 9999
2 59247 43.0025 158.6890 0002141 273.8412 86.2195 15.27584893 92436
Epoch: 29. Okt. 2025 • Age: 18 hours

Aktueller Status

Höhe 493.5 km
Geschwindigkeit 7.62 km/s
Subsatellitenpunkt -39.08°S, 116.02°E
Startdatum 16. März 2024
Alter 1.6 years
Typ internet

Technische Details

Klassifizierung Payload
Masse 730.00 kg
Trockenmasse 700.00 kg
Gesamtmasse 730.00 kg
Länge 0.30 m
Durchmesser 4.10 m
Spannweite 29.00 m
Form Box + pan
Hersteller SPXS
Bus-Typ Starlink V2M
Phasenstatus In Orbit
Besitzer/Staat SPXS/US

Große Konstellationen

Loading constellations...